You are not logged in, Click here to log in
清邁國際機場 / VTCC 泰國清邁
ICAO: VTCC Country: 泰國清邁
Latitude: 18.7677 Longitude: 98.964
Total Arrivals: 3 Total Departures: 5
Latest Arrival: GC12 (RCTP-VTCC)Wen Han . Chien Latest Departure: SC1178 (VTCC-ZUCK)Wen Han . Chien
Scenery:
METAR : VTCC 080230Z VRB01KT CAVOK 18/09 Q1025 NOSIG

清邁國際機場